[[{"header":{"parameterUnit":"m.s-1","parameterCategory":2,"la1":30.2991,"la2":30.254,"lo1":-89.0895,"lo2":-89.0444,"dy":0.0017,"dx":0.0017,"nx":28,"ny":28,"refTime":"2025-12-29T09:00:00:Z","depth":"0","parameterNumber":2,"parameterNumberName":"U-component_of_CURRENTS"},"data":[0,0,0,0,0,0,0,0,0,0,0,0,0,0,0,0,0,0,0,0,0,0,0,0,0,0,0,0,0,0,0,0,0,0,0,0,0,0,0,0,0,0,0,0,0,0,0,0,0,0,0,0,0,0,0,0,0,0,0.2904,0.2905,0,0.2926,0.2926,0.2926,0.292,0.292,0.2919,0.2919,0.2899,0.2898,0.2898,0,0,0,0,0,0,0,0,0,0,0,0,0,0.2854,0.2855,0.2904,0.2905,0.2905,0.2926,0.2926,0.2926,0.292,0.292,0.2919,0.2919,0.2899,0.2898,0.2898,0,0,0,0,0,0,0,0,0,0,0,0,0,0.2872,0.2855,0.2904,0.2908,0.2908,0.2926,0.2926,0.2926,0.292,0.292,0.2919,0.2919,0.2899,0.2898,0.2898,0.2896,0,0,0.2896,0.2895,0,0,0,0,0,0,0,0,0.2871,0.2874,0.2906,0.2907,0.2908,0.2924,0.2901,0.2915,0.292,0.2911,0.2919,0.2919,0.2906,0.2904,0.2904,0.2896,0.2895,0.2896,0.2895,0.2895,0.2895,0,0,0,0,0,0,0,0.287,0.2873,0.2909,0.2907,0.2908,0.2908,0.291,0.2904,0.2905,0.2912,0.2913,0.2921,0.2905,0.2905,0.2903,0.2894,0.2896,0.2895,0.2895,0.2894,0.2919,0.292,0,0,0,0,0,0,0.2876,0.2872,0.2908,0.291,0.2894,0.2909,0.2911,0.2916,0.2906,0.2906,0.2921,0.2921,0.2906,0.2904,0.2903,0.2929,0.2895,0.2894,0.2894,0.2918,0.2919,0.2921,0,0,0,0,0,0,0.2874,0.2879,0.2908,0.2895,0.2899,0.2911,0.2915,0.2916,0.2922,0.2915,0.2913,0.2927,0.2906,0.2904,0.2908,0.2927,0.2894,0.2893,0.2917,0.2918,0.292,0.2963,0,0,0,0,0,0,0.2873,0.2878,0.2881,0.2895,0.29,0.2926,0.2916,0.2917,0.2929,0.2928,0.2919,0.2917,0.2905,0.2909,0.2907,0.2925,0.2893,0.2915,0.2918,0.2919,0.296,0.2966,0.2971,0,0,0,0,0,0.2871,0.2878,0.2881,0.2885,0.2904,0.2927,0.2929,0.2934,0.2929,0.2937,0.2932,0.2917,0.2921,0.2909,0.2907,0.2925,0.2914,0.2917,0.2919,0.2958,0.2965,0.2971,0,0,0,0,0,0,0.2854,0.2878,0.2882,0.2894,0.2914,0.2928,0.2936,0.2939,0.2941,0.2939,0.2926,0.2924,0.2938,0.2926,0.2914,0.294,0.2917,0.2919,0.2948,0.2954,0.2959,0.2978,0.2892,0,0,0,0,0,0.2854,0.2866,0.289,0.29,0.2912,0.2924,0.2934,0.2939,0.2946,0.2947,0.294,0.2938,0.2946,0.2945,0.2946,0.2954,0.2966,0.2966,0.2972,0.2976,0.2992,0.3024,0.3034,0.2928,0.2928,0.2928,0,0,0.2848,0.2866,0.2871,0.2898,0.2911,0.2934,0.2929,0.2948,0.2967,0.2944,0.2958,0.2956,0.2954,0.2969,0.2974,0.2959,0.3014,0.2979,0.2983,0.2996,0.3028,0.3038,0.3047,0.293,0.293,0.293,0,0,0.2851,0.2863,0.2877,0.2899,0.2929,0.2942,0.2951,0.2969,0.2977,0.2991,0.2987,0.3001,0.2995,0.3009,0.3013,0.3049,0.3044,0.3044,0.3081,0.3112,0.3121,0.3129,0.3166,0.3177,0.3042,0.3042,0.3043,0,0.2844,0.2868,0.2884,0.2911,0.2932,0.2948,0.2972,0.2987,0.3003,0.3017,0.3,0.3027,0.3021,0.306,0.3073,0.3062,0.3078,0.3055,0.312,0.3128,0.3135,0.3171,0.3182,0.3045,0.3045,0.3044,0.3044,0,0.2862,0.2885,0.2898,0.2937,0.2959,0.2984,0.3014,0.3033,0.304,0.3055,0.309,0.3088,0.3107,0.3107,0.3099,0.3154,0.3149,0.3125,0.3104,0.3149,0.3183,0.3194,0.3048,0.3047,0.3047,0.3046,0,0,0.2838,0.2898,0.2903,0.2928,0.2977,0.2997,0.3037,0.3079,0.3114,0.3122,0.3165,0.3181,0.3185,0.3192,0.3188,0.3214,0.3279,0.3194,0.3194,0.3231,0.3357,0.3389,0.3404,0.3263,0.3265,0.3267,0.3362,0,0.2848,0.2896,0.2926,0.2972,0.3,0.3036,0.3073,0.3114,0.3146,0.319,0.3207,0.3242,0.3216,0.3231,0.3255,0.3279,0.331,0.3257,0.3307,0.331,0.3333,0.3419,0.3447,0.3538,0.3373,0.3374,0.3376,0,0.2858,0.2892,0.2935,0.2998,0.3014,0.3041,0.3112,0.315,0.3221,0.325,0.3293,0.3308,0.3363,0.3323,0.3394,0.336,0.3369,0.3377,0.338,0.3406,0.3363,0.3465,0.3564,0.3593,0.3393,0.3392,0.339,0,0.2835,0.2899,0.2932,0.2954,0.3025,0.3049,0.3087,0.3161,0.3216,0.3295,0.3344,0.3394,0.3438,0.3454,0.3482,0.344,0.3559,0.3497,0.3537,0.3539,0.3574,0.3576,0.371,0.3551,0.355,0.355,0.355,0,0.2837,0.2864,0.2922,0.2941,0.2987,0.3037,0.31,0.3154,0.325,0.3319,0.3371,0.3441,0.3474,0.3538,0.3529,0.3596,0.3601,0.3579,0.3579,0.359,0.3592,0.3624,0.3608,0.3554,0.3553,0.3552,0.3552,0,0.2807,0.2846,0.2888,0.2954,0.2976,0.3006,0.3106,0.3157,0.3255,0.3352,0.3383,0.3507,0.3596,0.3636,0.3692,0.3681,0.3674,0.373,0.3751,0.3751,0.3789,0.3773,0.3681,0.3542,0.3788,0.379,0.3791,0,0.2795,0.2812,0.2881,0.2901,0.2929,0.2986,0.3027,0.3141,0.3206,0.3384,0.3427,0.3569,0.3667,0.38,0.3831,0.3875,0.3744,0.3893,0.3814,0.3839,0.382,0.3602,0.3472,0.3878,0.388,0.3881,0.3883,0,0.2768,0.279,0.282,0.2864,0.2903,0.2954,0.3024,0.3085,0.3219,0.3332,0.348,0.3585,0.3769,0.3867,0.3959,0.3969,0.3804,0.3925,0.3952,0.3924,0.3695,0.3546,0.3764,0.3897,0.3895,0.3894,0.3893,0.3893,0.2735,0.2745,0.278,0.2815,0.2857,0.2894,0.292,0.3025,0.3139,0.3303,0.3446,0.3642,0.3891,0.4051,0.4016,0.4101,0.3895,0.4065,0.4051,0.383,0.3677,0.3935,0.4058,0.4058,0.4058,0.4057,0.4057,0,0.2679,0.2695,0.2728,0.2759,0.2773,0.2822,0.2893,0.2927,0.3029,0.3275,0.3428,0.3796,0.3989,0.4142,0.4343,0.4289,0.4003,0.4214,0.3956,0.3815,0.411,0.4102,0.4241,0.4241,0.4241,0.4241,0.4241,0.4241,0.265,0.2648,0.2664,0.266,0.2681,0.268,0.2703,0.2785,0.2952,0.3218,0.3476,0.369,0.4158,0.4603,0.4684,0.4541,0.4182,0.4074,0.3899,0.4242,0.4227,0.4211,0.4204,0.4361,0.4361,0.3481,0.3476,0.3472]},{"header":{"parameterUnit":"m.s-1","parameterCategory":2,"la1":30.2991,"la2":30.254,"lo1":-89.0895,"lo2":-89.0444,"dy":0.0017,"dx":0.0017,"nx":28,"ny":28,"refTime":"2025-12-29T09:00:00:Z","depth":"0","parameterNumber":3,"parameterNumberName":"V-component_of_CURRENTS"},"data":[0,0,0,0,0,0,0,0,0,0,0,0,0,0,0,0,0,0,0,0,0,0,0,0,0,0,0,0,0,0,0,0,0,0,0,0,0,0,0,0,0,0,0,0,0,0,0,0,0,0,0,0,0,0,0,0,0,0,-0.0216,-0.0217,0,-0.0282,-0.0283,-0.0284,-0.0337,-0.0337,-0.0337,-0.0338,-0.0411,-0.0413,-0.0414,0,0,0,0,0,0,0,0,0,0,0,0,0,-0.019,-0.019,-0.0216,-0.0217,-0.0217,-0.0282,-0.0283,-0.0284,-0.0337,-0.0337,-0.0338,-0.0338,-0.0411,-0.0412,-0.0414,0,0,0,0,0,0,0,0,0,0,0,0,0,-0.0225,-0.019,-0.0216,-0.025,-0.0254,-0.0282,-0.0283,-0.0284,-0.0336,-0.0337,-0.0338,-0.0338,-0.041,-0.0412,-0.0415,-0.0418,0,0,-0.0422,-0.0423,0,0,0,0,0,0,0,0,-0.0223,-0.0226,-0.0244,-0.0248,-0.0252,-0.03,-0.0301,-0.0329,-0.0336,-0.0307,-0.0338,-0.0338,-0.0373,-0.0379,-0.0392,-0.0421,-0.0424,-0.0422,-0.0424,-0.0425,-0.0425,0,0,0,0,0,0,0,-0.022,-0.0224,-0.0244,-0.0245,-0.025,-0.0281,-0.0286,-0.0307,-0.0337,-0.0309,-0.0313,-0.0318,-0.0376,-0.039,-0.0394,-0.0426,-0.0422,-0.0424,-0.0426,-0.0427,-0.0456,-0.0455,0,0,0,0,0,0,-0.0205,-0.0221,-0.0242,-0.0246,-0.0237,-0.0281,-0.0287,-0.0285,-0.0337,-0.0345,-0.0317,-0.032,-0.0385,-0.0391,-0.0397,-0.0388,-0.0425,-0.0427,-0.0428,-0.0457,-0.0456,-0.0455,0,0,0,0,0,0,-0.0204,-0.0206,-0.0239,-0.0234,-0.024,-0.028,-0.0279,-0.0286,-0.0297,-0.0343,-0.0351,-0.0319,-0.0386,-0.0394,-0.0409,-0.0391,-0.0428,-0.043,-0.0457,-0.0456,-0.0455,-0.0379,0,0,0,0,0,0,-0.0203,-0.0205,-0.02,-0.0233,-0.024,-0.0242,-0.0278,-0.0287,-0.0299,-0.0303,-0.0347,-0.0355,-0.0387,-0.0405,-0.0412,-0.0395,-0.0432,-0.0458,-0.0457,-0.0456,-0.0383,-0.0376,-0.037,0,0,0,0,0,-0.0202,-0.0184,-0.0199,-0.0202,-0.0231,-0.0241,-0.0248,-0.028,-0.0298,-0.0294,-0.0327,-0.0353,-0.0402,-0.0407,-0.0414,-0.0398,-0.0459,-0.0457,-0.0456,-0.0385,-0.0377,-0.037,0,0,0,0,0,0,-0.0168,-0.0189,-0.0206,-0.0195,-0.0213,-0.0249,-0.0249,-0.0271,-0.0296,-0.03,-0.0346,-0.0356,-0.0365,-0.039,-0.0394,-0.0403,-0.0434,-0.0434,-0.0378,-0.0371,-0.0364,-0.0344,-0.0434,0,0,0,0,0,-0.0158,-0.0151,-0.0179,-0.017,-0.0176,-0.0212,-0.0221,-0.024,-0.0266,-0.0278,-0.031,-0.0342,-0.0364,-0.0374,-0.04,-0.0402,-0.0435,-0.0397,-0.039,-0.0385,-0.0374,-0.0414,-0.041,-0.045,-0.045,-0.045,0,0,-0.0143,-0.0153,-0.015,-0.0163,-0.0181,-0.0175,-0.0219,-0.0222,-0.0218,-0.028,-0.0284,-0.0322,-0.0361,-0.0367,-0.0372,-0.0385,-0.0391,-0.0383,-0.0378,-0.0369,-0.0412,-0.0408,-0.0404,-0.0449,-0.0449,-0.045,0,0,-0.0103,-0.0117,-0.0099,-0.0107,-0.0124,-0.0143,-0.0138,-0.0169,-0.0184,-0.0194,-0.0238,-0.0262,-0.0297,-0.0321,-0.0337,-0.031,-0.0359,-0.0318,-0.0266,-0.0305,-0.0302,-0.03,-0.0336,-0.0337,-0.0311,-0.0311,-0.0311,0,-0.0086,-0.0065,-0.0094,-0.0079,-0.0076,-0.0121,-0.0097,-0.0117,-0.0149,-0.0154,-0.0183,-0.0237,-0.0273,-0.0279,-0.0272,-0.0294,-0.0326,-0.0291,-0.0296,-0.0295,-0.0294,-0.0331,-0.0334,-0.0307,-0.0308,-0.0308,-0.0309,0,-0.0035,-0.0019,-0.0006,0.0,-0.0001,0.0014,-0.0013,-0.0019,-0.0046,-0.0071,-0.009,-0.0148,-0.0178,-0.0195,-0.0226,-0.023,-0.0258,-0.0287,-0.0313,-0.0285,-0.0327,-0.0331,-0.0302,-0.0303,-0.0304,-0.0305,0,0,0.0008,0.0028,0.0032,0.0053,0.0044,0.0054,0.0063,0.0061,0.0074,0.0022,0.0028,-0.0025,-0.0065,-0.0087,-0.0135,-0.0168,-0.0193,-0.0216,-0.022,-0.0247,-0.0278,-0.0311,-0.032,-0.0226,-0.0226,-0.0227,-0.0309,0,0.0058,0.0114,0.0106,0.016,0.0187,0.0157,0.0172,0.0161,0.0139,0.0131,0.0061,0.0046,-0.0021,-0.0034,-0.008,-0.0163,-0.0201,-0.0168,-0.0305,-0.0309,-0.0339,-0.0324,-0.034,-0.0416,-0.0314,-0.0315,-0.0315,0,0.0111,0.0145,0.0207,0.0247,0.0256,0.0274,0.0296,0.0306,0.0277,0.0257,0.0218,0.016,0.0107,0.0041,-0.0088,-0.0065,-0.0159,-0.0233,-0.0239,-0.0297,-0.035,-0.0429,-0.0428,-0.0681,-0.0322,-0.0322,-0.0321,0,0.0164,0.0217,0.0274,0.0286,0.0317,0.0336,0.035,0.0342,0.0371,0.0337,0.0347,0.0257,0.0221,0.0092,-0.0063,-0.0075,-0.0213,-0.0252,-0.0373,-0.0376,-0.043,-0.0437,-0.0684,-0.0344,-0.0344,-0.0343,-0.0343,0,0.0224,0.027,0.0302,0.0334,0.0405,0.0397,0.0464,0.0458,0.0469,0.0515,0.0417,0.0426,0.0232,0.0128,-0.0028,-0.0208,-0.019,-0.0358,-0.0398,-0.0404,-0.0408,-0.0662,-0.0821,-0.0346,-0.0346,-0.0345,-0.0345,0,0.0274,0.0293,0.0366,0.0413,0.0433,0.0483,0.0552,0.0603,0.0591,0.0645,0.0641,0.0556,0.0418,0.0216,0.0006,-0.0151,-0.0492,-0.0398,-0.039,-0.0427,-0.0775,-0.0927,-0.1221,-0.137,-0.0543,-0.0545,-0.0546,0,0.0304,0.0346,0.043,0.0483,0.0507,0.058,0.0638,0.0662,0.0725,0.0734,0.0772,0.0656,0.0604,0.0278,-0.0028,-0.0312,-0.0554,-0.0522,-0.0552,-0.0797,-0.0997,-0.1102,-0.1214,-0.0596,-0.0598,-0.0599,-0.06,0,0.0366,0.0392,0.0455,0.0566,0.064,0.0737,0.0819,0.0892,0.0922,0.0964,0.0997,0.0955,0.0636,0.0351,-0.0054,-0.0277,-0.0747,-0.0555,-0.0818,-0.1066,-0.119,-0.1349,-0.0542,-0.061,-0.0609,-0.0608,-0.0607,-0.0607,0.0411,0.0469,0.0552,0.0659,0.0754,0.0876,0.0965,0.1061,0.1169,0.1248,0.1188,0.118,0.0723,0.0175,-0.0182,-0.0834,-0.0849,-0.1019,-0.1184,-0.1266,-0.1422,-0.0633,-0.074,-0.074,-0.0739,-0.0739,-0.0739,0,0.047,0.0538,0.0641,0.0772,0.0888,0.0924,0.1077,0.117,0.1307,0.1404,0.1435,0.1218,0.0646,0.0047,-0.0803,-0.132,-0.1542,-0.1641,-0.1812,-0.1897,-0.1196,-0.1209,-0.1412,-0.1411,-0.1411,-0.1411,-0.1411,-0.141,0.0503,0.061,0.0665,0.0859,0.0955,0.1109,0.1202,0.1334,0.1444,0.1553,0.1572,0.1541,0.1028,-0.0502,-0.1619,-0.1913,-0.2357,-0.2464,-0.2672,-0.2209,-0.2163,-0.2119,-0.2168,-0.2568,-0.257,-0.3296,-0.3303,-0.3309]}],[{"header":{"parameterUnit":"m.s-1","parameterCategory":2,"la1":30.2991,"la2":30.254,"lo1":-89.0895,"lo2":-89.0444,"dy":0.0017,"dx":0.0017,"nx":28,"ny":28,"refTime":"2025-12-29T09:00:00:Z","depth":"2","parameterNumber":2,"parameterNumberName":"U-component_of_CURRENTS"},"data":[0,0,0,0,0,0,0,0,0,0,0,0,0,0,0,0,0,0,0,0,0,0,0,0,0,0,0,0,0,0,0,0,0,0,0,0,0,0,0,0,0,0,0,0,0,0,0,0,0,0,0,0,0,0,0,0,0,0,0.2872,0.2873,0,0.2894,0.2894,0.2894,0.2888,0.2888,0.2888,0.2888,0.2869,0.2868,0.2868,0,0,0,0,0,0,0,0,0,0,0,0,0,0.2823,0.2824,0.2872,0.2873,0.2873,0.2894,0.2894,0.2894,0.2888,0.2888,0.2888,0.2888,0.2869,0.2868,0.2868,0,0,0,0,0,0,0,0,0,0,0,0,0,0.2841,0.2824,0.2872,0.2876,0.2877,0.2894,0.2894,0.2894,0.2888,0.2888,0.2888,0.2888,0.2869,0.2868,0.2868,0.2866,0,0,0.2866,0.2865,0,0,0,0,0,0,0,0,0.284,0.2842,0.2875,0.2876,0.2877,0.2892,0.287,0.2884,0.2888,0.288,0.2888,0.2888,0.2875,0.2874,0.2873,0.2865,0.2864,0.2865,0.2865,0.2865,0.2865,0,0,0,0,0,0,0,0.2838,0.2841,0.2877,0.2875,0.2877,0.2876,0.2878,0.2872,0.2874,0.288,0.2881,0.289,0.2875,0.2874,0.2873,0.2864,0.2866,0.2865,0.2864,0.2864,0.2889,0.289,0,0,0,0,0,0,0.2844,0.284,0.2876,0.2878,0.2862,0.2877,0.2879,0.2884,0.2875,0.2875,0.289,0.2889,0.2875,0.2873,0.2872,0.2899,0.2865,0.2864,0.2864,0.2888,0.289,0.2891,0,0,0,0,0,0,0.2843,0.2847,0.2875,0.2863,0.2867,0.2879,0.2883,0.2884,0.289,0.2883,0.2882,0.2896,0.2875,0.2873,0.2878,0.2897,0.2864,0.2863,0.2887,0.2889,0.289,0.2933,0,0,0,0,0,0,0.2841,0.2846,0.285,0.2863,0.2868,0.2894,0.2884,0.2885,0.2897,0.2897,0.2888,0.2886,0.2875,0.2879,0.2877,0.2895,0.2863,0.2886,0.2888,0.289,0.2931,0.2936,0.2941,0,0,0,0,0,0.2839,0.2846,0.2849,0.2854,0.2872,0.2895,0.2897,0.2902,0.2898,0.2905,0.2901,0.2886,0.2891,0.2879,0.2877,0.2895,0.2885,0.2887,0.2889,0.2928,0.2935,0.2941,0,0,0,0,0,0,0.2823,0.2847,0.2851,0.2863,0.2882,0.2895,0.2904,0.2908,0.291,0.2908,0.2895,0.2893,0.2908,0.2896,0.2884,0.291,0.2887,0.2889,0.2918,0.2924,0.2929,0.2949,0.2862,0,0,0,0,0,0.2823,0.2836,0.2858,0.2869,0.2881,0.2893,0.2902,0.2908,0.2915,0.2916,0.291,0.2908,0.2916,0.2915,0.2916,0.2924,0.2936,0.2937,0.2942,0.2946,0.2962,0.2993,0.3003,0.2899,0.2899,0.2899,0,0,0.2818,0.2836,0.284,0.2867,0.288,0.2903,0.2897,0.2917,0.2935,0.2913,0.2928,0.2926,0.2923,0.2939,0.2944,0.293,0.2984,0.2949,0.2953,0.2967,0.2997,0.3007,0.3016,0.29,0.29,0.29,0,0,0.2822,0.2833,0.2847,0.2869,0.2899,0.2911,0.292,0.2938,0.2947,0.296,0.2957,0.2972,0.2966,0.2979,0.2983,0.3019,0.3014,0.3014,0.3052,0.3082,0.3091,0.3099,0.3135,0.3146,0.3013,0.3013,0.3013,0,0.2815,0.2838,0.2855,0.2881,0.2901,0.2918,0.2941,0.2956,0.2972,0.2987,0.297,0.2997,0.2991,0.303,0.3043,0.3032,0.3048,0.3025,0.309,0.3098,0.3105,0.314,0.3151,0.3015,0.3015,0.3015,0.3015,0,0.2833,0.2855,0.2869,0.2907,0.2929,0.2954,0.2983,0.3002,0.301,0.3025,0.3059,0.3058,0.3077,0.3078,0.3069,0.3124,0.3119,0.3095,0.3073,0.3118,0.3152,0.3163,0.3019,0.3018,0.3017,0.3017,0,0,0.2809,0.2869,0.2874,0.2898,0.2947,0.2966,0.3006,0.3048,0.3083,0.3092,0.3134,0.315,0.3155,0.3161,0.3158,0.3183,0.3248,0.3163,0.3164,0.32,0.3325,0.3355,0.3369,0.3232,0.3234,0.3236,0.3329,0,0.282,0.2868,0.2896,0.2942,0.297,0.3006,0.3042,0.3082,0.3115,0.3159,0.3176,0.3211,0.3186,0.3201,0.3225,0.3248,0.3279,0.3226,0.3276,0.3278,0.3299,0.3384,0.3039,0.3096,0.334,0.3342,0.3343,0,0.283,0.2864,0.2906,0.2969,0.2984,0.3011,0.3081,0.3118,0.3189,0.3218,0.3261,0.3276,0.3331,0.3292,0.3362,0.3328,0.3337,0.3345,0.3348,0.3372,0.3329,0.309,0.3107,0.3362,0.336,0.3359,0.3358,0,0.2807,0.2871,0.2904,0.2926,0.2995,0.302,0.3057,0.313,0.3184,0.3263,0.3312,0.3362,0.3406,0.3422,0.3449,0.3408,0.3525,0.3464,0.3501,0.3503,0.3219,0.3194,0.3516,0.3516,0.3516,0.3516,0.3515,0,0.281,0.2837,0.2895,0.2913,0.2959,0.3009,0.3071,0.3124,0.3219,0.3288,0.334,0.3409,0.3441,0.3505,0.3496,0.3561,0.3566,0.3543,0.3543,0.3228,0.3203,0.3432,0.3421,0.3519,0.3518,0.3518,0.3517,0,0.278,0.282,0.2861,0.2927,0.2948,0.2979,0.3077,0.3128,0.3225,0.3321,0.3353,0.3475,0.3563,0.3602,0.3657,0.3644,0.368,0.3692,0.3339,0.3298,0.3619,0.3609,0.3743,0.3745,0.3747,0.3748,0.375,0,0.2769,0.2786,0.2855,0.2875,0.2902,0.2959,0.3,0.3113,0.3177,0.3353,0.3396,0.3536,0.3617,0.3747,0.3689,0.3707,0.3764,0.3461,0.3332,0.3664,0.3649,0.3636,0.3624,0.2956,0.2951,0.2946,0.2943,0,0.2743,0.2765,0.2794,0.2838,0.2877,0.2927,0.2997,0.3057,0.3189,0.3283,0.3428,0.3517,0.3621,0.3496,0.355,0.3509,0.3431,0.3383,0.3798,0.2989,0.2939,0.292,0.2929,0.2904,0.2908,0.2911,0.2913,0.2914,0.271,0.272,0.2755,0.279,0.2832,0.2867,0.2893,0.2912,0.2996,0.3016,0.3261,0.3231,0.3294,0.3172,0.3121,0.3064,0.3298,0.3146,0.315,0.3161,0.3091,0.3051,0.3022,0.3026,0.303,0.3034,0.3037,0,0.2625,0.2671,0.2704,0.2734,0.2702,0.2796,0.2866,0.2762,0.2728,0.2762,0.2798,0.2606,0.2571,0.264,0.2476,0.2562,0.2433,0.2498,0.2257,0.23,0.2338,0.2215,0.1919,0.1916,0.1913,0.191,0,0,0.2588,0.257,0.2585,0.255,0.2601,0.2492,0.2511,0.2364,0.2297,0.2144,0.2097,0.2249,0.2488,0.2084,0.2113,0.1978,0.21,0.1908,0.2802,0.2552,0.2584,0.2721,0.2587,0,0,0,0,0]},{"header":{"parameterUnit":"m.s-1","parameterCategory":2,"la1":30.2991,"la2":30.254,"lo1":-89.0895,"lo2":-89.0444,"dy":0.0017,"dx":0.0017,"nx":28,"ny":28,"refTime":"2025-12-29T09:00:00:Z","depth":"2","parameterNumber":3,"parameterNumberName":"V-component_of_CURRENTS"},"data":[0,0,0,0,0,0,0,0,0,0,0,0,0,0,0,0,0,0,0,0,0,0,0,0,0,0,0,0,0,0,0,0,0,0,0,0,0,0,0,0,0,0,0,0,0,0,0,0,0,0,0,0,0,0,0,0,0,0,-0.0167,-0.0168,0,-0.0233,-0.0233,-0.0234,-0.0287,-0.0287,-0.0288,-0.0288,-0.0362,-0.0363,-0.0365,0,0,0,0,0,0,0,0,0,0,0,0,0,-0.0142,-0.0142,-0.0167,-0.0168,-0.0168,-0.0232,-0.0233,-0.0234,-0.0287,-0.0287,-0.0288,-0.0288,-0.0361,-0.0363,-0.0365,0,0,0,0,0,0,0,0,0,0,0,0,0,-0.0176,-0.0142,-0.0167,-0.0201,-0.0205,-0.0232,-0.0233,-0.0235,-0.0287,-0.0287,-0.0288,-0.0289,-0.036,-0.0363,-0.0365,-0.0368,0,0,-0.0372,-0.0373,0,0,0,0,0,0,0,0,-0.0174,-0.0177,-0.0195,-0.0199,-0.0203,-0.0251,-0.0251,-0.0279,-0.0287,-0.0257,-0.0288,-0.0289,-0.0324,-0.0329,-0.0342,-0.0371,-0.0374,-0.0373,-0.0374,-0.0375,-0.0376,0,0,0,0,0,0,0,-0.0171,-0.0175,-0.0194,-0.0196,-0.0201,-0.0232,-0.0237,-0.0257,-0.0288,-0.026,-0.0263,-0.0268,-0.0326,-0.034,-0.0344,-0.0376,-0.0373,-0.0375,-0.0376,-0.0377,-0.0407,-0.0406,0,0,0,0,0,0,-0.0156,-0.0172,-0.0192,-0.0196,-0.0188,-0.0231,-0.0237,-0.0236,-0.0287,-0.0295,-0.0268,-0.027,-0.0336,-0.0342,-0.0347,-0.0339,-0.0375,-0.0377,-0.0379,-0.0407,-0.0406,-0.0406,0,0,0,0,0,0,-0.0156,-0.0157,-0.019,-0.0185,-0.0191,-0.0231,-0.0229,-0.0237,-0.0248,-0.0293,-0.0302,-0.027,-0.0336,-0.0344,-0.036,-0.0343,-0.0378,-0.0381,-0.0408,-0.0407,-0.0406,-0.0331,0,0,0,0,0,0,-0.0154,-0.0156,-0.0152,-0.0183,-0.0191,-0.0193,-0.0229,-0.0238,-0.025,-0.0254,-0.0298,-0.0306,-0.0337,-0.0356,-0.0362,-0.0346,-0.0382,-0.0409,-0.0407,-0.0406,-0.0334,-0.0328,-0.0322,0,0,0,0,0,-0.0153,-0.0136,-0.0151,-0.0154,-0.0182,-0.0192,-0.0199,-0.0231,-0.0249,-0.0245,-0.0278,-0.0304,-0.0353,-0.0357,-0.0365,-0.0349,-0.0409,-0.0408,-0.0406,-0.0337,-0.0329,-0.0322,0,0,0,0,0,0,-0.012,-0.014,-0.0158,-0.0147,-0.0165,-0.02,-0.02,-0.0223,-0.0247,-0.0251,-0.0297,-0.0307,-0.0316,-0.0341,-0.0345,-0.0355,-0.0385,-0.0385,-0.0329,-0.0322,-0.0316,-0.0296,-0.0384,0,0,0,0,0,-0.0111,-0.0104,-0.0131,-0.0122,-0.0128,-0.0164,-0.0173,-0.0192,-0.0218,-0.023,-0.0262,-0.0293,-0.0316,-0.0325,-0.0351,-0.0353,-0.0386,-0.0348,-0.0342,-0.0337,-0.0325,-0.0366,-0.0362,-0.0401,-0.0401,-0.0401,0,0,-0.0096,-0.0106,-0.0103,-0.0115,-0.0134,-0.0127,-0.0171,-0.0174,-0.017,-0.0232,-0.0237,-0.0274,-0.0312,-0.0319,-0.0324,-0.0337,-0.0343,-0.0335,-0.033,-0.0322,-0.0364,-0.036,-0.0357,-0.04,-0.04,-0.04,0,0,-0.0057,-0.0071,-0.0052,-0.0061,-0.0078,-0.0096,-0.0092,-0.0122,-0.0138,-0.0148,-0.0191,-0.0215,-0.025,-0.0273,-0.029,-0.0263,-0.0311,-0.0271,-0.022,-0.0259,-0.0256,-0.0254,-0.029,-0.0291,-0.0265,-0.0264,-0.0264,0,-0.0041,-0.0019,-0.0048,-0.0032,-0.003,-0.0075,-0.0051,-0.0071,-0.0103,-0.0108,-0.0137,-0.0191,-0.0226,-0.0232,-0.0226,-0.0248,-0.0279,-0.0244,-0.025,-0.0249,-0.0248,-0.0286,-0.0288,-0.0261,-0.0261,-0.0261,-0.0262,0,0.0011,0.0026,0.0039,0.0045,0.0044,0.0059,0.0032,0.0026,-0.0002,-0.0026,-0.0046,-0.0103,-0.0133,-0.0149,-0.018,-0.0184,-0.0212,-0.0241,-0.0267,-0.0239,-0.0281,-0.0285,-0.0255,-0.0257,-0.0258,-0.0259,0,0,0.0052,0.0073,0.0077,0.0098,0.0089,0.0099,0.0107,0.0105,0.0118,0.0066,0.0072,0.0019,-0.0022,-0.0043,-0.0091,-0.0124,-0.0149,-0.0172,-0.0176,-0.0203,-0.0235,-0.0268,-0.0276,-0.0182,-0.0183,-0.0183,-0.0266,0,0.0102,0.0158,0.015,0.0203,0.0231,0.0201,0.0216,0.0205,0.0183,0.0174,0.0105,0.0089,0.0022,0.0009,-0.0036,-0.0119,-0.0157,-0.0124,-0.0261,-0.0265,-0.0294,-0.0281,-0.023,-0.0301,-0.0271,-0.0271,-0.0272,0,0.0155,0.0188,0.025,0.0291,0.0299,0.0318,0.0339,0.0348,0.0319,0.0299,0.026,0.0202,0.0149,0.0083,-0.0045,-0.0022,-0.0117,-0.019,-0.0196,-0.0253,-0.0306,-0.0325,-0.031,-0.028,-0.0279,-0.0279,-0.0278,0,0.0207,0.026,0.0317,0.0329,0.036,0.0379,0.0392,0.0384,0.0413,0.0379,0.0388,0.0298,0.0261,0.0133,-0.0022,-0.0034,-0.0171,-0.021,-0.033,-0.0334,-0.033,-0.0333,-0.0302,-0.0302,-0.0301,-0.0301,-0.0301,0,0.0267,0.0312,0.0345,0.0376,0.0447,0.0438,0.0505,0.0499,0.051,0.0555,0.0457,0.0466,0.0272,0.0168,0.0013,-0.0167,-0.0149,-0.0316,-0.0356,-0.0303,-0.0302,-0.0316,-0.0317,-0.0304,-0.0304,-0.0303,-0.0302,0,0.0315,0.0335,0.0407,0.0454,0.0475,0.0523,0.0593,0.0643,0.0631,0.0684,0.068,0.0595,0.0456,0.0255,0.0046,-0.0111,-0.0287,-0.0357,-0.0282,-0.0312,-0.0434,-0.0429,-0.0499,-0.05,-0.0502,-0.0503,-0.0504,0,0.0345,0.0387,0.047,0.0523,0.0548,0.062,0.0678,0.0701,0.0765,0.0772,0.0809,0.0694,0.064,0.0315,0.0031,-0.0247,-0.03,-0.0412,-0.0432,-0.0421,-0.0453,-0.0446,-0.044,-0.0398,-0.0398,-0.0398,-0.0398,0,0.0406,0.0432,0.0495,0.0606,0.068,0.0776,0.0858,0.093,0.096,0.1003,0.1034,0.0991,0.0689,0.0425,0.0027,-0.0165,-0.0366,-0.0425,-0.0428,-0.0357,-0.0334,-0.0363,-0.0358,-0.0399,-0.0399,-0.0399,-0.0399,-0.0399,0.0451,0.0509,0.0592,0.0698,0.0793,0.0915,0.1003,0.1113,0.1223,0.1304,0.1218,0.1164,0.0833,0.0358,0.0012,-0.0359,-0.0353,-0.0493,-0.049,-0.0487,-0.0461,-0.0442,-0.0523,-0.0523,-0.0524,-0.0524,-0.0525,0,0.0528,0.0577,0.068,0.081,0.0947,0.0962,0.1115,0.1242,0.14,0.144,0.1462,0.1167,0.0829,0.0442,-0.0085,-0.0416,-0.0424,-0.0539,-0.0471,-0.0468,-0.0465,-0.0437,-0.0493,-0.0494,-0.0495,-0.0496,0,0,0.0566,0.0681,0.0736,0.0938,0.1018,0.1222,0.1315,0.1483,0.1576,0.1656,0.1598,0.1456,0.0966,0.0586,0.0135,-0.0175,-0.0244,-0.0239,-0.0227,-0.0089,-0.0082,-0.0403,-0.0351,0,0,0,0,0]}],[{"header":{"parameterUnit":"m.s-1","parameterCategory":2,"la1":30.2991,"la2":30.254,"lo1":-89.0895,"lo2":-89.0444,"dy":0.0017,"dx":0.0017,"nx":28,"ny":28,"refTime":"2025-12-29T09:00:00:Z","depth":"4","parameterNumber":2,"parameterNumberName":"U-component_of_CURRENTS"},"data":[0,0,0,0,0,0,0,0,0,0,0,0,0,0,0,0,0,0,0,0,0,0,0,0,0,0,0,0,0,0,0,0,0,0,0,0,0,0,0,0,0,0,0,0,0,0,0,0,0,0,0,0,0,0,0,0,0,0,0.1558,0.1559,0,0.1634,0.1635,0.1635,0.1691,0.1692,0.1692,0.1693,0.1778,0.178,0.1782,0,0,0,0,0,0,0,0,0,0,0,0,0,0.1458,0.1459,0.1558,0.1559,0.156,0.1634,0.1635,0.1635,0.1691,0.1692,0.1693,0.1693,0.1778,0.178,0.1782,0,0,0,0,0,0,0,0,0,0,0,0,0,0.1512,0.146,0.1557,0.1598,0.1602,0.1634,0.1635,0.1636,0.1691,0.1692,0.1693,0.1694,0.1777,0.178,0.1782,0.1777,0,0,0.179,0.1791,0,0,0,0,0,0,0,0,0.1509,0.1516,0.1591,0.1595,0.16,0.1656,0.1631,0.1684,0.169,0.1655,0.1693,0.1694,0.1739,0.1744,0.1754,0.1781,0.1785,0.179,0.1791,0.1792,0.1793,0,0,0,0,0,0,0,0.1505,0.1513,0.1586,0.1592,0.1598,0.1612,0.162,0.1641,0.1689,0.1658,0.1663,0.1674,0.1741,0.1751,0.1756,0.1786,0.179,0.1792,0.1793,0.1794,0.1926,0.1928,0,0,0,0,0,0,0.1499,0.1509,0.1583,0.1588,0.1559,0.1613,0.1622,0.1635,0.1689,0.1698,0.1673,0.1677,0.1746,0.1753,0.1759,0.1858,0.1792,0.1795,0.1796,0.1924,0.1927,0.1929,0,0,0,0,0,0,0.1497,0.1505,0.158,0.1552,0.1563,0.1614,0.1628,0.1636,0.1683,0.1701,0.171,0.1716,0.1747,0.1756,0.1817,0.1858,0.1796,0.1798,0.1922,0.1925,0.1928,0.199,0,0,0,0,0,0,0.1493,0.1504,0.1528,0.1551,0.1564,0.1623,0.1627,0.1637,0.1687,0.1693,0.1739,0.1746,0.1749,0.1813,0.1819,0.186,0.18,0.192,0.1923,0.1927,0.1986,0.1995,0.2003,0,0,0,0,0,0.149,0.1513,0.1528,0.1538,0.159,0.1625,0.1633,0.167,0.1689,0.1715,0.1753,0.1747,0.1841,0.1817,0.1823,0.1866,0.1918,0.1922,0.1927,0.1982,0.1993,0.2003,0,0,0,0,0,0,0.1485,0.1522,0.1539,0.1575,0.1609,0.1635,0.167,0.169,0.174,0.1759,0.1771,0.1781,0.185,0.185,0.1823,0.1916,0.1879,0.1885,0.1919,0.193,0.1938,0.1944,0.1802,0,0,0,0,0,0.1493,0.1525,0.1556,0.1591,0.1611,0.1647,0.1673,0.1698,0.1736,0.1761,0.1793,0.1831,0.1866,0.1894,0.1921,0.1971,0.1974,0.2004,0.2013,0.202,0.2031,0.2066,0.2079,0.1944,0.1944,0.1944,0,0,0.1502,0.1528,0.1548,0.1593,0.1625,0.1661,0.1666,0.1718,0.1758,0.1761,0.1839,0.1865,0.1887,0.1947,0.1977,0.1958,0.2062,0.2026,0.2032,0.2039,0.2072,0.2085,0.2097,0.1947,0.1947,0.1946,0,0,0.1522,0.156,0.1589,0.1622,0.1676,0.1698,0.172,0.1769,0.1807,0.1871,0.1888,0.1944,0.1997,0.2024,0.2041,0.2115,0.2107,0.2129,0.218,0.2214,0.2225,0.2235,0.2259,0.2271,0.2133,0.2133,0.2133,0,0.1534,0.1573,0.1605,0.1641,0.1677,0.1718,0.1758,0.1798,0.1864,0.1901,0.1908,0.2011,0.2032,0.2101,0.2133,0.2135,0.215,0.2135,0.2225,0.2235,0.2243,0.2266,0.2277,0.2137,0.2136,0.2136,0.2136,0,0.1563,0.1611,0.1635,0.1693,0.1734,0.178,0.1831,0.1887,0.1937,0.1974,0.2066,0.21,0.2161,0.2178,0.2181,0.2262,0.2252,0.223,0.2194,0.2261,0.228,0.2291,0.2142,0.2141,0.214,0.2139,0,0,0.1546,0.1637,0.165,0.169,0.177,0.1802,0.188,0.1954,0.2013,0.2082,0.2158,0.2228,0.2257,0.2279,0.2295,0.233,0.2408,0.2317,0.2317,0.2334,0.2488,0.2343,0.2341,0.2404,0.2407,0.2408,0.2477,0,0.1564,0.1634,0.168,0.176,0.18,0.1868,0.1934,0.2011,0.2078,0.2162,0.2218,0.2297,0.2291,0.2336,0.2373,0.2405,0.244,0.2391,0.2427,0.2428,0.2285,0.235,0.2416,0.2485,0.2488,0.2489,0.2491,0,0.157,0.1622,0.1697,0.1798,0.1824,0.1881,0.1997,0.2063,0.2178,0.2236,0.2321,0.2368,0.2459,0.2432,0.252,0.2493,0.2504,0.2513,0.2515,0.2364,0.2303,0.2405,0.251,0.2509,0.2507,0.2506,0.2505,0,0.1527,0.1632,0.1696,0.1731,0.1847,0.1906,0.1977,0.2091,0.2166,0.2295,0.2365,0.2456,0.2529,0.256,0.2598,0.2572,0.2674,0.263,0.2507,0.2496,0.2577,0.2566,0.2683,0.2683,0.2683,0.2683,0.2682,0,0.1508,0.1565,0.1688,0.172,0.1806,0.1898,0.2002,0.2083,0.222,0.23,0.2408,0.2476,0.2569,0.2636,0.2636,0.2611,0.2707,0.2529,0.2508,0.2603,0.2593,0.2585,0.2573,0.2685,0.2685,0.2684,0.2684,0,0.1443,0.1526,0.1603,0.1738,0.1786,0.1848,0.2013,0.2082,0.2224,0.2335,0.2388,0.2534,0.2603,0.2671,0.273,0.2653,0.2644,0.2609,0.2727,0.271,0.2432,0.2423,0.2465,0.2461,0.2457,0.2454,0.2451,0,0.141,0.1446,0.1594,0.1644,0.1711,0.1824,0.1898,0.2061,0.2132,0.2337,0.2371,0.2516,0.2583,0.2553,0.2629,0.2627,0.2592,0.2573,0.2479,0.2436,0.2413,0.2409,0.2405,0.2445,0.2444,0.2443,0.2442,0,0.1342,0.1411,0.1473,0.1572,0.1659,0.1745,0.1863,0.1907,0.2081,0.2241,0.2293,0.2337,0.2415,0.2446,0.248,0.2466,0.2573,0.2532,0.2538,0.245,0.2412,0.2392,0.2392,0.2429,0.2431,0.2432,0.2433,0,0.1293,0.1313,0.1402,0.1477,0.1578,0.1622,0.1706,0.1787,0.1879,0.2096,0.2105,0.2245,0.238,0.2365,0.2389,0.2378,0.2326,0.2232,0.2253,0.2268,0.2172,0.2093,0.2005,0,0,0,0,0,0.1229,0.1238,0.13,0.1363,0.1457,0.1511,0.1658,0.1746,0.1915,0.1896,0.1996,0.2049,0.2095,0.2172,0.2118,0.2305,0.2338,0.2233,0.2241,0.2357,0.2372,0.2277,0,0,0,0,0,0,0.1184,0.1231,0.1253,0.1251,0.127,0.1351,0.1435,0.1556,0.1556,0.1736,0.1769,0.1912,0.1986,0.2087,0.2068,0.2093,0.2055,0.233,0.2325,0.2348,0.2362,0.2374,0.2282,0,0,0,0,0]},{"header":{"parameterUnit":"m.s-1","parameterCategory":2,"la1":30.2991,"la2":30.254,"lo1":-89.0895,"lo2":-89.0444,"dy":0.0017,"dx":0.0017,"nx":28,"ny":28,"refTime":"2025-12-29T09:00:00:Z","depth":"4","parameterNumber":3,"parameterNumberName":"V-component_of_CURRENTS"},"data":[0,0,0,0,0,0,0,0,0,0,0,0,0,0,0,0,0,0,0,0,0,0,0,0,0,0,0,0,0,0,0,0,0,0,0,0,0,0,0,0,0,0,0,0,0,0,0,0,0,0,0,0,0,0,0,0,0,0,0.0287,0.0286,0,0.0232,0.0231,0.023,0.0204,0.0204,0.0205,0.0205,0.0137,0.0135,0.0133,0,0,0,0,0,0,0,0,0,0,0,0,0,0.0324,0.0324,0.0287,0.0286,0.0286,0.0232,0.0231,0.023,0.0204,0.0204,0.0205,0.0205,0.0137,0.0135,0.0133,0,0,0,0,0,0,0,0,0,0,0,0,0,0.0292,0.0324,0.0287,0.0267,0.0264,0.0232,0.0231,0.023,0.0204,0.0204,0.0205,0.0205,0.0138,0.0135,0.0132,0.0112,0,0,0.0124,0.0122,0,0,0,0,0,0,0,0,0.0294,0.029,0.027,0.0268,0.0265,0.0226,0.0219,0.019,0.0204,0.0226,0.0205,0.0205,0.0166,0.016,0.0149,0.0109,0.0106,0.0123,0.0122,0.012,0.012,0,0,0,0,0,0,0,0.0296,0.0292,0.0264,0.027,0.0267,0.0245,0.0241,0.0213,0.0195,0.0224,0.0223,0.0218,0.0164,0.0152,0.0147,0.0105,0.0123,0.0121,0.0119,0.0118,0.0044,0.0044,0,0,0,0,0,0,0.0307,0.0295,0.0266,0.0263,0.0281,0.0245,0.024,0.0238,0.0195,0.0189,0.0218,0.0217,0.0157,0.015,0.0145,0.0127,0.012,0.0118,0.0116,0.0044,0.0044,0.0044,0,0,0,0,0,0,0.0308,0.0305,0.0268,0.0278,0.0272,0.0244,0.0242,0.0237,0.0228,0.0191,0.0184,0.0215,0.0156,0.0149,0.0123,0.0124,0.0116,0.0114,0.0045,0.0044,0.0044,0.0086,0,0,0,0,0,0,0.0309,0.0305,0.0309,0.0279,0.0272,0.0255,0.0241,0.0235,0.0225,0.0223,0.0186,0.0179,0.0156,0.0128,0.0121,0.012,0.0112,0.0045,0.0045,0.0044,0.0085,0.0087,0.0089,0,0,0,0,0,0.0311,0.0316,0.0309,0.0306,0.0277,0.0255,0.0249,0.0229,0.0225,0.0222,0.0196,0.0181,0.012,0.0125,0.0117,0.0115,0.0045,0.0045,0.0044,0.0084,0.0086,0.0089,0,0,0,0,0,0,0.0332,0.0313,0.0305,0.0304,0.0284,0.0251,0.0248,0.0233,0.0211,0.0211,0.0177,0.0168,0.0146,0.0123,0.0131,0.0092,0.008,0.0078,0.0113,0.0115,0.0117,0.0135,0.0109,0,0,0,0,0,0.0339,0.034,0.0314,0.0313,0.0306,0.0278,0.0268,0.0254,0.0229,0.022,0.0192,0.0163,0.0135,0.0121,0.0093,0.0072,0.0046,0.0065,0.0067,0.0069,0.0077,0.0031,0.003,0.0042,0.0042,0.0042,0,0,0.0348,0.0337,0.0338,0.0318,0.0303,0.0298,0.0272,0.0261,0.0256,0.0216,0.0201,0.0168,0.0131,0.0108,0.0096,0.0091,0.0051,0.0068,0.007,0.0078,0.0031,0.0029,0.0028,0.0042,0.0042,0.0042,0,0,0.0367,0.0357,0.0364,0.0351,0.0333,0.0315,0.0315,0.0284,0.027,0.0248,0.0218,0.0189,0.0147,0.012,0.0101,0.0096,0.0063,0.0086,0.0111,0.0067,0.0065,0.0064,0.0031,0.0027,0.0087,0.0088,0.0088,0,0.0379,0.0386,0.0362,0.0365,0.0362,0.0327,0.0335,0.0312,0.0276,0.0267,0.0251,0.0186,0.0153,0.0125,0.0123,0.0102,0.0075,0.0108,0.007,0.0068,0.0066,0.0033,0.0027,0.0089,0.0089,0.0089,0.0089,0,0.0401,0.0408,0.0412,0.0408,0.0399,0.0399,0.0369,0.0354,0.0333,0.0309,0.0274,0.0222,0.0187,0.0166,0.0143,0.0113,0.0099,0.0078,0.0068,0.0068,0.0032,0.0026,0.0092,0.0092,0.0091,0.009,0,0,0.0429,0.043,0.0433,0.0446,0.0425,0.0424,0.0412,0.0394,0.0395,0.0343,0.0334,0.0273,0.0244,0.022,0.0179,0.0138,0.0097,0.0108,0.0105,0.0083,0.0005,0.0002,-0.0006,0.0069,0.0068,0.0067,-0.0012,0,0.0458,0.0483,0.0471,0.0498,0.0511,0.048,0.0476,0.0453,0.0425,0.0403,0.0338,0.0313,0.0264,0.025,0.0198,0.0125,0.0082,0.0121,0.0002,-0.0001,0.0002,-0.0013,0.0064,-0.0018,-0.0019,-0.002,-0.0021,0,0.0489,0.0504,0.0538,0.0554,0.0557,0.0564,0.0561,0.0551,0.0506,0.0482,0.0436,0.0387,0.0323,0.0279,0.0151,0.0179,0.01,0.0036,0.0031,0.0012,-0.0016,-0.002,-0.0033,-0.0032,-0.0031,-0.0031,-0.003,0,0.0532,0.0554,0.059,0.0594,0.06,0.0609,0.0606,0.0579,0.0586,0.0534,0.0532,0.0439,0.0401,0.0285,0.0156,0.0153,0.0012,-0.0011,-0.0091,-0.0092,-0.0082,-0.008,-0.0105,-0.0105,-0.0105,-0.0104,-0.0104,0,0.0569,0.0601,0.0616,0.0637,0.068,0.0661,0.0698,0.0674,0.0659,0.0673,0.0582,0.0565,0.04,0.0301,0.0173,0.0025,0.0021,-0.0086,-0.0115,-0.0063,-0.0058,-0.0087,-0.0084,-0.0107,-0.0107,-0.0106,-0.0106,0,0.0611,0.0621,0.067,0.0692,0.0706,0.0735,0.0768,0.0794,0.0762,0.0775,0.0764,0.0661,0.0526,0.036,0.0171,0.0061,-0.0087,-0.0141,-0.0062,-0.0085,-0.0165,-0.0159,-0.0234,-0.0235,-0.0236,-0.0237,-0.0237,0,0.0633,0.0664,0.072,0.0758,0.0773,0.0817,0.0855,0.0847,0.0873,0.0833,0.0842,0.0725,0.0634,0.0371,0.0184,-0.0063,-0.0103,-0.0181,-0.0186,-0.0159,-0.018,-0.0172,-0.0166,-0.0238,-0.0238,-0.0238,-0.0239,0,0.0676,0.0703,0.0742,0.0821,0.0876,0.0936,0.0979,0.1006,0.0993,0.0975,0.0907,0.0759,0.0603,0.0383,0.0189,0.001,-0.0132,-0.0189,-0.0189,-0.0195,-0.0164,-0.0183,-0.0175,-0.0241,-0.0241,-0.024,-0.024,0,0.0713,0.075,0.081,0.0878,0.0955,0.1021,0.104,0.1056,0.107,0.1013,0.099,0.0804,0.0692,0.0421,0.0244,0.0065,0.0014,-0.0049,-0.0058,-0.0057,0.001,0.0076,0.0049,0,0,0,0,0,0.074,0.0788,0.086,0.0936,0.1016,0.1063,0.1111,0.112,0.111,0.1076,0.103,0.0879,0.0598,0.0475,0.0298,0.0226,-0.0016,0.0011,-0.0092,-0.0254,-0.0252,-0.0204,0,0,0,0,0,0,0.076,0.0832,0.0865,0.0972,0.1039,0.113,0.1166,0.1162,0.1129,0.1086,0.0943,0.0844,0.0578,0.0715,0.0303,0.0246,0.0154,-0.0125,-0.0129,-0.0256,-0.0253,-0.0251,-0.0201,0,0,0,0,0]}]]